Location: Northcutt
(34.7304°N, 84.4305°W)
Time: 14:39:54
(UTC+00:00)

Hubble Space Telescope - Pass Details

Date: 10 August 2022
Orbit: 531 x 535 km, 28.5° (Epoch: 27 September)

Event Time Altitude Azimuth Distance (km) Brightness Sun altitude
Rises 01:38:23 0° 253° (WSW) 2,667 5.0 -13.2°
Reaches altitude 10° 01:40:46 10° 244° (WSW) 1,777 3.9 -13.6°
Maximum altitude 01:44:30 34° 179° (S) 890 1.6 -14.3°
Enters shadow 01:46:04 25° 136° (SE) 1,097 1.8 -14.5°
